Home > Weather > Stade > Past weeks

Flag for Germany Weather for the Past 2 Weeks in Stade, Lower Saxony, Germany

Now
46 °F

Drizzle. Partly sunny.


Feels Like: 43 °F
Forecast: 39 / 55 °F
Wind: 7 mph from West

Location: Hamburg-Finkenwerder

Current Time: Apr 30, 2016 at 11:25:52 AM

Latest Report: Apr 30, 2016 at 10:20 AM


Visibility: 6 mi

Pressure: 30.07 "Hg

Humidity: 100%

Dew Point: 46 °F

Location of StadeLocation

Historic Weather in Stade — Graph

°F

Stade Temperature Yesterday

Maximum temperature yesterday: 55 °F (at 2:20 PM)
Minimum temperature yesterday: 36 °F (at 6:20 AM)
Average temperature yesterday: 48 °F

High & Low Weather Summary for the Past Weeks

 TemperatureHumidityPressure
High57 °F (Apr 16, 2:20 PM)100% (Apr 15, 9:20 AM)30.42 "Hg (Apr 15, 9:20 AM)
Low30 °F (Apr 25, 5:50 AM)44% (Apr 29, 2:20 PM)29.36 "Hg (Apr 26, 2:04 PM)
Average46 °F83%29.89 "Hg
* Reported Apr 15 9:20 AM — Apr 30 9:50 AM, Stade, Weather by CustomWeather, © 2016

Note: Actual official high and low records may vary slightly from our data, if they occured in-between our weather recording intervals... More about our weather records

Advertising

Stade Weather History for the Previous 24 Hours

Scroll right to see more
 ConditionsComfort  
Time TempWeatherWind HumidityBarometerVisibility
9:50 AM
Sat, Apr 30
48 °FDrizzle. Partly sunny.6 mph100%30.04 "Hg5 mi
8:50 AM46 °FDrizzle. Partly sunny.5 mph100%30.04 "Hg5 mi
7:50 PM
Fri, Apr 29
46 °FPassing clouds.5 mph100%29.98 "HgN/A
7:20 PM46 °FScattered clouds.8 mph100%29.98 "HgN/A
6:50 PM46 °FPassing clouds.10 mph100%29.98 "HgN/A
6:20 PM48 °FLight rain. Scattered clouds.12 mph100%29.98 "HgN/A
5:50 PM48 °FLight rain. Scattered clouds.13 mph100%29.98 "HgN/A
5:20 PM50 °FLight rain. Scattered clouds.12 mph94%29.95 "HgN/A
4:50 PM52 °FLight rain. Scattered clouds.13 mph67%29.95 "HgN/A
4:20 PM52 °FSprinkles. Scattered clouds.17 mph62%29.95 "HgN/A
3:50 PM52 °FSprinkles. Scattered clouds.21 mph58%29.92 "HgN/A
3:20 PM54 °FScattered clouds.24 mph51%29.92 "HgN/A
2:50 PM54 °FSunny.21 mph47%29.92 "Hg10 mi
2:20 PM55 °FPassing clouds.17 mph44%29.92 "HgN/A
1:50 PM54 °FSunny.20 mph47%29.92 "Hg10 mi
1:20 PM54 °FScattered clouds.18 mph51%29.92 "HgN/A
12:50 PM54 °FScattered clouds.18 mph51%29.92 "HgN/A
12:20 PM54 °FScattered clouds.20 mph47%29.92 "HgN/A
11:50 AM54 °FPassing clouds.18 mph51%29.92 "HgN/A
11:20 AM52 °FPassing clouds.17 mph58%29.92 "HgN/A
Weather by CustomWeather, © 2016

See weather overviewHow to use our weather pages